Powrót do katalogu

STARLINK-33883

AktywnyŁącznośćVLEO
NORAD 63781·PAYLOAD·🇺🇸 United States

Wystrzelony May 2, 2025 z Cape Canaveral Space Force Station

Loading…

Następne Przeloty (najbliższe 24 godziny)

TLE

ŚwieżeSource: CelesTrak SupGP

Epoka: Sep 15, 2026, 02:59 UTC

1 63781C 25091G   26258.12479167 -.00028337  00000+0 -10262-2 0  2587
2 63781  43.0009  62.9010 0001706 268.2650  12.8062 15.27597993    11

Śledź STARLINK-33883 w czasie rzeczywistym z AllMySat

Download on the App Store